Simultaneous Nadir Overpasses (SNOs) Predictions

Prediction of SNOs between GOES-17 and NPP Satellite Orbit:

Table of predicted SNOs for the next 14.0 days since TLE Epoch: 2/17/2024
Index Date Time (GOES-17) GOES-17 Lat,Lon NPP Lat,Lon Distance(km) Time Diff (sec)
1 02/17/2024 08:05:46 -0.01,-104.70 -0.92,-100.56 471.22 80
2 02/18/2024 20:27:41 0.02,-104.67 -0.27,-105.86 136.76 80
3 02/19/2024 20:11:37 0.02,-104.67 0.78,-101.34 379.68 80
4 02/21/2024 08:33:23 -0.03,-104.69 0.43,-106.60 217.44 80
5 02/22/2024 08:11:59 -0.03,-104.69 -0.63,-102.07 299.10 80
6 02/23/2024 20:33:53 0.03,-104.66 -0.60,-107.36 308.50 80
7 02/24/2024 20:17:49 0.03,-104.66 0.47,-102.84 208.51 80
8 02/26/2024 08:39:35 -0.03,-104.70 0.74,-108.10 387.57 80
9 02/27/2024 08:18:09 -0.03,-104.70 -0.28,-103.56 129.43 80
10 02/28/2024 20:40:05 0.04,-104.67 -0.88,-108.87 477.96 80
11 02/29/2024 20:23:59 0.03,-104.67 0.14,-104.33 39.15 80
